DW5450 Weather Reports


time (UTC)temp
C
wind
direction
speed
KPH
gust
KPH
rain 1hr
cm
rain 24hr
cm
rain mn
cm
humidity
%
barometer
mb
20260504043043 21 335 0.0 4.8 0.00 0.00 0.00 52 1012.3
20260504041543 21 42 0.0 3.2 0.00 0.00 0.00 54 1012.1
20260504040100 21 51 0.0 1.6 0.00 0.00 0.00 54 1012.0
20260504034543 22 140 0.0 1.6 0.00 0.00 0.00 58 1011.9
20260504033041 23 140 0.0 0.0 0.00 0.00 0.00 58 1011.8
20260504031541 23 140 0.0 0.0 0.00 0.00 0.00 57 1011.7
20260504030041 23 140 0.0 1.6 0.00 0.00 0.00 56 1011.6
20260504024541 23 148 0.0 3.2 0.00 0.00 0.00 57 1011.4
20260504023040 24 132 0.0 3.2 0.00 0.00 0.00 57 1011.4
20260504021540 25 122 0.0 3.2 0.00 0.00 0.00 57 1011.4
20260504020040 25 138 1.6 3.2 0.00 0.00 0.00 55 1011.2
20260504014550 26 126 0.0 4.8 0.00 0.00 0.00 50 1011.0
20260504013116 26 126 0.0 4.8 0.00 0.00 0.00 42 1011.1
20260504011540 26 145 1.6 8.0 0.00 0.00 0.00 40 1011.0
20260504010036 27 121 3.2 12.9 0.00 0.00 0.00 40 1011.0
20260504004543 27 126 3.2 11.3 0.00 0.00 0.00 43 1010.9
20260504003035 27 122 1.6 12.9 0.00 0.00 0.00 39 1010.8
20260504001537 28 143 3.2 16.1 0.00 0.00 0.00 34 1010.8
20260504000034 28 165 8.0 17.7 0.00 0.00 0.00 39 1010.7
20260503234534 28 121 4.8 12.9 0.00 0.00 0.00 40 1010.7
20260503233033 28 178 3.2 14.5 0.00 0.00 0.00 37 1010.7
20260503231533 28 158 4.8 14.5 0.00 0.00 0.00 39 1010.8
20260503230034 29 150 8.0 19.3 0.00 0.00 0.00 42 1010.8
20260503224532 29 173 3.2 12.9 0.00 0.00 0.00 41 1011.1
20260503223031 29 139 4.8 16.1 0.00 0.00 0.00 42 1011.0
20260503221530 29 156 3.2 16.1 0.00 0.00 0.00 42 1011.0
20260503220030 29 202 6.4 17.7 0.00 0.00 0.00 45 1011.1
20260503214529 28 183 3.2 12.9 0.00 0.00 0.00 47 1011.4
20260503213028 28 156 4.8 17.7 0.00 0.00 0.00 46 1011.4
20260503211528 28 165 6.4 16.1 0.00 0.00 0.00 47 1011.4
20260503210028 29 132 6.4 19.3 0.00 0.00 0.00 47 1011.6
20260503204530 29 182 3.2 17.7 0.00 0.00 0.00 43 1011.8
20260503203027 29 143 8.0 17.7 0.00 0.00 0.00 40 1011.9
20260503201527 30 178 9.7 19.3 0.00 0.00 0.00 41 1012.1
20260503200026 30 150 6.4 20.9 0.00 0.00 0.00 43 1012.3
20260503194524 30 176 4.8 19.3 0.00 0.00 0.00 40 1012.2
20260503193036 30 167 4.8 14.5 0.00 0.00 0.00 41 1012.5
20260503191520 30 94 6.4 17.7 0.00 0.00 0.00 42 1012.8
20260503190017 29 177 4.8 17.7 0.00 0.00 0.00 47 1012.8
20260503184523 28 146 6.4 17.7 0.00 0.00 0.00 45 1013.1
20260503183016 28 157 8.0 19.3 0.00 0.00 0.00 50 1013.1
20260503181517 28 182 4.8 19.3 0.00 0.00 0.00 56 1013.1
20260503180019 28 182 3.2 17.7 0.00 0.00 0.00 61 1013.0
20260503174515 28 111 3.2 14.5 0.00 0.00 0.00 67 1013.1
20260503173022 28 169 4.8 17.7 0.00 0.00 0.00 69 1013.1
20260503171521 28 162 8.0 16.1 0.00 0.00 0.00 70 1013.1
20260503081602 18 22 0.0 3.2 0.00 0.00 0.00 66 1011.1
20260503080106 18 23 0.0 1.6 0.00 0.00 0.00 66 1011.3
20260503071604 18 36 0.0 3.2 0.00 0.00 0.00 67 1011.9
20260503070110 18 36 0.0 0.0 0.00 0.00 0.00 67 1012.0
20260503060112 20 36 0.0 0.0 0.00 0.00 0.00 62 1012.0
20260503054547 20 36 0.0 1.6 0.00 0.00 0.00 62 1011.9
20260503053049 20 36 0.0 3.2 0.00 0.00 0.00 61 1011.8
20260503051549 20 98 0.0 3.2 0.00 0.00 0.00 60 1011.5
20260503050046 20 141 0.0 1.6 0.00 0.00 0.00 60 1011.4
20260503044546 21 142 0.0 0.0 0.00 0.00 0.00 60 1011.5